Location: Mount Cross
(36.6390°N, 79.4878°W)
Time: 01:38:00
(UTC+00:00)

Vanguard 2 Rocket - Pass Details

Date: 26 March 2023
Orbit: 554 x 3314 km, 32.9° (Epoch: 08 June)

Event Time Altitude Azimuth Distance (km) Brightness Sun altitude
Exits shadow 07:33:04 15° 165° (SSE) 5,786 10.7 -40.9°
Drops below altitude 10° 07:36:03 10° 159° (SSE) 6,255 10.9 -40.5°
Sets 07:41:42 0° 151° (SSE) 7,189 11.4 -39.7°
